Weather History for KSTC - January, 2013

Change the Weather History Date:

Tuesday, January 8, 2013

  Actual Average Record
Temperature  
Mean Temperature 19 °F 11 °F  
Max Temperature 33 °F 21 °F 54 °F (2003)
Min Temperature 4 °F 2 °F -26 °F (1977)
Degree Days  
Heating Degree Days 46 54  
Month to date heating degree days 403 425  
Since 1 July heating degree days 3676 3872  
Cooling Degree Days 0 0  
Month to date cooling degree days 0 0  
Year to date cooling degree days 0 0  
Moisture  
Dew Point 16 °F    
Average Humidity 84    
Maximum Humidity 96    
Minimum Humidity 72    
Precipitation  
Precipitation 0.00 in 0.02 in 0.37 in (1969)
Month to date precipitation 0.05 0.19  
Year to date precipitation 0.05 0.19  
Snow  
Snow 0.00 in 0.30 in 3.80 in (1969)
Month to date snowfall 0.5 2.4  
Since 1 July snowfall 18.7 21.0  
Snow Depth 6.00 in    
Sea Level Pressure  
Sea Level Pressure 29.89 in    
Wind  
Wind Speed 6 mph (South)    
Max Wind Speed 18 mph    
Max Gust Speed 23 mph    
Visibility 6 miles    
Events Fog    
T = Trace of Precipitation, MM = Missing Value Source: NWS Daily Summary

Daily Weather History Graph

Daily Weather History Graph

Search for Another Location

Airport or City:

Trip Planner

Search our weather history database for the weather conditions in past years. The results will help you decide how hot, cold, wet, or windy it might be!

Date:

Astronomy

Jan. 08, 2013 Rise Set
Actual Time 7:55 AM CST 4:50 PM CST
Civil Twilight 7:21 AM CST 5:24 PM CST
Nautical Twilight 6:44 AM CST 6:01 PM CST
Astronomical Twilight 6:09 AM CST 6:37 PM CST
Moon 4:28 AM CST (1/8) 1:54 PM CST (1/8)
Length of Visible Light 10h 02m
Length of Day
8h 55m
Waning Crescent, 13% of the Moon is Illuminated
Jan 8
Waning Crescent
Jan 11
New
Jan 18
First Quarter
Jan 26
Full
Feb 3
Last Quarter

Hourly Weather History & Observations

Time (CST) Temp. Windchill Dew Point Humidity Pressure Visibility Wind Dir Wind Speed Gust Speed Precip Events Conditions
12:09 AM 15.8 °F - 12.2 °F 86% 29.94 in 0.2 mi Calm Calm - N/A Fog Light Freezing Fog
12:16 AM 14.0 °F 8.2 °F 10.4 °F 86% 29.94 in 1.0 mi South 3.5 mph - N/A   Mist
12:19 AM 14.0 °F 8.2 °F 10.4 °F 86% 29.94 in 0.8 mi South 3.5 mph - N/A   Mist
12:32 AM 17.6 °F 12.3 °F 14.0 °F 86% 29.94 in 1.2 mi South 3.5 mph - N/A   Partly Cloudy
12:35 AM 17.6 °F 12.3 °F 15.8 °F 93% 29.94 in 3.0 mi South 3.5 mph - N/A   Partly Cloudy
12:50 AM 15.8 °F 8.6 °F 12.2 °F 86% 29.94 in 1.8 mi South 4.6 mph - N/A   Clear
12:53 AM 14.0 °F 8.2 °F 10.9 °F 88% 30.01 in 1.0 mi South 3.5 mph - N/A   Clear
1:05 AM 15.8 °F 10.2 °F 12.2 °F 86% 29.93 in 3.0 mi South 3.5 mph - N/A   Clear
1:19 AM 14.0 °F 6.5 °F 12.2 °F 93% 29.93 in 2.5 mi SSE 4.6 mph - N/A   Clear
1:30 AM 15.8 °F 8.6 °F 12.2 °F 86% 29.93 in 3.0 mi South 4.6 mph - N/A   Clear
1:53 AM 12.9 °F - 10.0 °F 88% 30.01 in 3.0 mi Calm Calm - N/A   Clear
2:53 AM 10.0 °F - 6.1 °F 84% 30.01 in 7.0 mi Calm Calm - N/A   Clear
3:53 AM 6.1 °F - 1.9 °F 83% 30.00 in 9.0 mi Calm Calm - N/A   Scattered Clouds
4:53 AM 5.0 °F -5.6 °F 1.0 °F 84% 29.99 in 10.0 mi SSE 5.8 mph - N/A   Clear
5:53 AM 7.0 °F - 1.9 °F 80% 29.99 in 7.0 mi Calm Calm - N/A   Clear
6:53 AM 8.1 °F - 3.0 °F 80% 30.00 in 9.0 mi Calm Calm - N/A   Clear
7:14 AM 8.6 °F 0.1 °F 5.0 °F 85% 29.91 in 8.0 mi East 4.6 mph - N/A   Partly Cloudy
7:53 AM 10.9 °F - 8.1 °F 88% 29.99 in 8.0 mi Calm Calm - N/A   Clear
8:53 AM 18.0 °F 11.1 °F 15.1 °F 88% 29.98 in 6.0 mi ESE 4.6 mph - N/A   Scattered Clouds
9:53 AM 21.0 °F 13.4 °F 18.0 °F 88% 29.96 in 5.0 mi East 5.8 mph - N/A   Partly Cloudy
10:53 AM 24.1 °F 18.2 °F 21.0 °F 88% 29.94 in 6.0 mi East 4.6 mph - N/A   Clear
11:53 AM 27.0 °F 21.6 °F 23.0 °F 85% 29.89 in 7.0 mi ESE 4.6 mph - N/A   Partly Cloudy
12:53 PM 28.9 °F 19.2 °F 21.9 °F 75% 29.85 in 8.0 mi SE 11.5 mph - N/A   Mostly Cloudy
1:53 PM 30.9 °F 23.5 °F 23.0 °F 72% 29.78 in 8.0 mi ESE 8.1 mph - N/A   Overcast
2:53 PM 33.1 °F 25.5 °F 26.1 °F 75% 29.81 in 9.0 mi South 9.2 mph - N/A   Mostly Cloudy
3:53 PM 32.0 °F 22.1 °F 25.0 °F 75% 29.80 in 10.0 mi South 13.8 mph 23.0 mph N/A   Mostly Cloudy
4:13 PM 32.0 °F 21.2 °F 24.8 °F 75% 29.73 in 9.0 mi South 16.1 mph - N/A   Overcast
4:53 PM 30.9 °F 22.2 °F 25.0 °F 79% 29.80 in 8.0 mi South 10.4 mph - N/A   Overcast
5:19 PM 30.2 °F 20.8 °F 24.8 °F 80% 29.73 in 9.0 mi SSW 11.5 mph - N/A   Overcast
5:53 PM 30.9 °F 22.2 °F 25.0 °F 79% 29.80 in 8.0 mi SSW 10.4 mph - N/A   Overcast
6:53 PM 30.0 °F 21.1 °F 25.0 °F 82% 29.82 in 7.0 mi SW 10.4 mph - N/A   Overcast
7:24 PM 28.4 °F 20.4 °F 23.0 °F 80% 29.74 in 6.0 mi SW 8.1 mph - N/A   Haze
7:53 PM 27.0 °F 20.5 °F 23.0 °F 85% 29.83 in 6.0 mi SW 5.8 mph - N/A   Clear
8:15 PM 28.4 °F 20.4 °F 23.0 °F 80% 29.76 in 6.0 mi WSW 8.1 mph - N/A   Haze
8:53 PM 28.9 °F 19.8 °F 24.1 °F 82% 29.84 in 7.0 mi West 10.4 mph - N/A   Overcast
9:53 PM 28.9 °F 21.9 °F 24.1 °F 82% 29.86 in 8.0 mi SW 6.9 mph - N/A   Partly Cloudy
10:53 PM 28.4 °F 18.5 °F 23.0 °F 80% 29.83 in 8.0 mi WSW 11.5 mph - N/A   Partly Cloudy
11:53 PM 30.0 °F 20.5 °F 24.1 °F 79% 29.91 in 10.0 mi WSW 11.5 mph - N/A   Scattered Clouds